Total_Precipitation_Accumulation
0.01 0.03 0.11 0.15 0.11 0.13 0.13 0.06 0.01 0.00 0.00 0.00 0.00 0.00 0.00 0.00 0.02 0.08 0.01 0.00 0.00 0.00 0.01 0.02 0.02 0.01 0.01 0.02 0.03 0.04 0.03 0.03 0.04 0.07 0.10 0.12 0.14 0.11 0.07 0.04 0.02 0.02 0.01 0.01 0.01 0.02 0.02 0.02 0.02
0.01 0.03 0.10 0.10 0.11 0.17 0.12 0.07 0.02 0.02 0.01 0.00 0.00 0.00 0.00 0.00 0.00 0.00 0.00 0.00 0.00 0.00 0.00 0.01 0.01 0.01 0.01 0.01 0.03 0.05 0.05 0.03 0.04 0.09 0.11 0.09 0.11 0.10 0.08 0.07 0.05 0.04 0.02 0.01 0.01 0.01 0.02 0.02 0.01
0.01 0.02 0.07 0.07 0.08 0.16 0.14 0.08 0.03 0.03 0.02 0.01 0.00 0.00 0.00 0.00 0.00 0.00 0.00 0.00 0.00 0.00 0.00 0.01 0.01 0.01 0.01 0.01 0.03 0.05 0.07 0.06 0.06 0.10 0.10 0.08 0.08 0.10 0.09 0.10 0.11 0.08 0.04 0.02 0.02 0.02 0.02 0.02 0.01
0.00 0.01 0.04 0.04 0.06 0.11 0.11 0.06 0.03 0.01 0.01 0.01 0.00 0.00 0.00 0.00 0.00 0.00 0.00 0.00 0.00 0.00 0.00 0.00 0.01 0.01 0.01 0.01 0.02 0.03 0.05 0.07 0.07 0.09 0.09 0.09 0.12 0.11 0.08 0.10 0.10 0.08 0.04 0.03 0.04 0.04 0.03 0.02 0.01
0.01 0.01 0.01 0.02 0.05 0.08 0.08 0.06 0.03 0.02 0.01 0.01 0.00 0.00 0.00 0.00 0.00 0.00 0.00 0.00 0.00 0.00 0.00 0.01 0.01 0.01 0.01 0.01 0.01 0.02 0.03 0.04 0.05 0.08 0.11 0.10 0.10 0.11 0.09 0.07 0.06 0.04 0.03 0.03 0.08 0.11 0.10 0.07 0.05
0.00 0.00 0.00 0.02 0.04 0.07 0.08 0.06 0.04 0.04 0.02 0.01 0.01 0.00 0.00 0.00 0.00 0.00 0.00 0.00 0.00 0.00 0.01 0.01 0.02 0.01 0.01 0.01 0.01 0.01 0.02 0.02 0.02 0.04 0.06 0.05 0.03 0.03 0.03 0.03 0.04 0.02 0.02 0.06 0.08 0.09 0.12 0.15 0.11
0.00 0.00 0.00 0.01 0.02 0.03 0.05 0.05 0.06 0.06 0.02 0.01 0.00 0.00 0.00 0.00 0.00 0.00 0.00 0.00 0.00 0.00 0.00 0.01 0.01 0.01 0.01 0.01 0.01 0.01 0.01 0.01 0.02 0.02 0.02 0.01 0.01 0.01 0.02 0.02 0.02 0.01 0.02 0.04 0.06 0.05 0.06 0.11 0.12
0.00 0.00 0.00 0.00 0.01 0.02 0.02 0.05 0.06 0.05 0.03 0.01 0.00 0.00 0.00 0.00 0.00 0.00 0.00 0.00 0.01 0.01 0.00 0.01 0.01 0.02 0.02 0.01 0.01 0.01 0.01 0.01 0.01 0.01 0.01 0.01 0.01 0.01 0.02 0.03 0.04 0.04 0.05 0.06 0.07 0.06 0.07 0.11 0.11
0.00 0.00 0.00 0.00 0.00 0.01 0.01 0.05 0.06 0.03 0.04 0.01 0.00 0.00 0.01 0.00 0.00 0.01 0.01 0.02 0.02 0.02 0.01 0.01 0.01 0.02 0.02 0.01 0.01 0.01 0.01 0.02 0.02 0.02 0.02 0.03 0.03 0.05 0.08 0.08 0.14 0.15 0.18 0.20 0.21 0.19 0.18 0.17 0.16
0.00 0.00 0.00 0.00 0.00 0.00 0.01 0.04 0.04 0.03 0.05 0.04 0.02 0.01 0.01 0.00 0.01 0.01 0.01 0.02 0.02 0.02 0.01 0.01 0.01 0.01 0.01 0.01 0.02 0.02 0.02 0.03 0.02 0.05 0.08 0.09 0.13 0.13 0.08 0.12 0.26 0.44 0.56 0.55 0.55 0.54 0.43 0.39 0.39
0.00 0.00 0.00 0.00 0.00 0.00 0.00 0.01 0.02 0.02 0.03 0.04 0.06 0.03 0.01 0.00 0.01 0.01 0.01 0.04 0.09 0.06 0.02 0.01 0.01 0.02 0.02 0.02 0.02 0.03 0.03 0.07 0.05 0.07 0.12 0.18 0.20 0.15 0.11 0.15 0.26 0.41 0.55 0.67 0.92 0.97 0.75 0.81 0.78
0.00 0.00 0.00 0.00 0.00 0.00 0.00 0.00 0.01 0.02 0.03 0.07 0.13 0.09 0.02 0.01 0.01 0.01 0.02 0.09 0.13 0.06 0.04 0.02 0.02 0.03 0.03 0.03 0.04 0.05 0.06 0.07 0.08 0.11 0.15 0.21 0.30 0.26 0.22 0.27 0.31 0.43 0.49 0.72 0.84 0.92 0.80 0.70 0.63
0.00 0.00 0.00 0.00 0.00 0.00 0.00 0.00 0.00 0.01 0.03 0.03 0.04 0.05 0.04 0.02 0.02 0.04 0.06 0.12 0.10 0.06 0.07 0.06 0.05 0.06 0.07 0.08 0.10 0.08 0.09 0.10 0.10 0.13 0.18 0.24 0.29 0.30 0.34 0.39 0.43 0.35 0.44 0.63 0.78 0.74 0.86 0.87 0.77
0.00 0.00 0.00 0.00 0.00 0.00 0.00 0.00 0.00 0.00 0.01 0.03 0.03 0.03 0.02 0.02 0.04 0.07 0.12 0.24 0.13 0.11 0.14 0.17 0.16 0.18 0.21 0.21 0.20 0.19 0.21 0.22 0.22 0.24 0.26 0.27 0.28 0.37 0.46 0.51 0.58 0.50 0.55 0.69 0.83 0.76 0.96 0.89 0.91
0.00 0.00 0.00 0.00 0.00 0.00 0.00 0.00 0.00 0.00 0.00 0.01 0.03 0.05 0.06 0.06 0.10 0.21 0.28 0.29 0.20 0.20 0.26 0.33 0.37 0.46 0.49 0.49 0.53 0.56 0.57 0.53 0.49 0.47 0.44 0.44 0.44 0.57 0.63 0.65 0.67 0.74 0.76 0.90 0.93 0.92 0.98 0.87 0.82
0.00 0.00 0.00 0.00 0.00 0.00 0.00 0.00 0.00 0.01 0.02 0.03 0.04 0.08 0.13 0.17 0.25 0.44 0.56 0.42 0.38 0.39 0.43 0.50 0.60 0.74 0.85 0.97 1.07 1.07 0.98 0.85 0.76 0.73 0.69 0.70 0.77 0.90 1.01 0.87 0.84 1.09 1.12 1.19 1.30 1.22 1.19 1.21 1.10
0.00 0.00 0.00 0.00 0.00 0.00 0.00 0.00 0.00 0.00 0.02 0.05 0.06 0.10 0.20 0.37 0.53 0.60 0.64 0.66 0.72 0.75 0.76 0.85 0.97 1.13 1.30 1.48 1.66 1.52 1.32 1.17 1.07 0.98 0.92 0.97 1.10 1.29 1.51 1.25 1.23 1.37 1.40 1.38 1.18 1.43 1.59 1.52 1.40
0.00 0.00 0.00 0.00 0.00 0.00 0.00 0.00 0.01 0.01 0.02 0.03 0.08 0.16 0.29 0.47 0.68 0.78 0.85 0.94 1.05 1.18 1.29 1.35 1.46 1.69 2.04 2.31 2.29 1.95 1.67 1.46 1.37 1.30 1.30 1.36 1.56 1.72 1.91 1.63 1.52 1.59 1.62 1.54 1.56 1.71 1.67 1.48 1.45
0.00 0.00 0.00 0.00 0.00 0.00 0.00 0.01 0.01 0.02 0.04 0.06 0.12 0.27 0.47 0.63 0.88 1.09 1.23 1.22 1.41 1.59 1.77 1.86 2.03 2.45 2.89 2.87 2.59 2.40 2.16 1.97 1.81 1.69 1.62 1.63 1.63 1.79 2.01 1.80 1.87 1.82 1.67 1.62 1.72 1.85 1.78 1.56 1.72
0.00 0.00 0.00 0.00 0.00 0.00 0.00 0.01 0.02 0.05 0.08 0.12 0.19 0.31 0.51 0.76 1.07 1.34 1.44 1.46 1.57 1.89 2.28 2.45 2.58 3.01 3.29 3.22 3.09 2.91 2.74 2.39 2.24 2.10 1.96 1.76 1.68 1.78 1.83 1.95 1.78 1.77 1.72 1.68 1.79 1.88 1.66 1.40 1.80
0.00 0.00 0.00 0.00 0.00 0.00 0.00 0.01 0.03 0.11 0.20 0.31 0.38 0.47 0.56 0.72 1.01 1.22 1.22 1.28 1.39 1.56 1.78 2.08 2.50 2.95 3.12 3.21 3.16 3.08 3.01 2.57 2.39 2.23 2.06 1.87 1.75 1.72 1.76 1.79 1.72 1.64 1.62 1.54 1.70 1.76 1.69 1.53 1.66
0.00 0.00 0.00 0.00 0.00 0.00 0.00 0.02 0.05 0.14 0.29 0.40 0.45 0.51 0.62 0.91 1.12 1.02 0.95 1.06 1.16 1.16 1.42 1.70 2.08 2.45 2.69 2.84 2.87 2.90 2.81 2.62 2.54 2.36 2.06 1.85 1.71 1.70 1.71 1.67 1.62 1.58 1.50 1.40 1.38 1.48 1.76 1.75 1.55
0.00 0.00 0.00 0.00 0.00 0.00 0.01 0.02 0.06 0.14 0.26 0.37 0.48 0.58 0.77 0.98 0.96 0.85 0.88 1.02 1.07 1.12 1.36 1.58 1.82 2.11 2.36 2.47 2.46 2.46 2.37 2.29 2.23 2.10 1.88 1.73 1.63 1.56 1.47 1.46 1.58 1.60 1.49 1.38 1.33 1.38 1.51 1.54 1.49
0.00 0.00 0.00 0.01 0.02 0.04 0.06 0.06 0.12 0.26 0.36 0.38 0.47 0.51 0.63 0.80 0.84 0.87 0.94 1.01 1.09 1.28 1.46 1.68 1.88 2.12 2.26 2.11 1.95 1.93 1.93 1.97 1.90 1.77 1.62 1.47 1.39 1.32 1.26 1.33 1.44 1.45 1.41 1.35 1.25 1.24 1.32 1.34 1.35
0.01 0.03 0.06 0.08 0.12 0.13 0.13 0.13 0.27 0.43 0.43 0.39 0.43 0.48 0.55 0.65 0.70 0.75 0.95 1.17 1.22 1.20 1.22 1.42 1.70 2.00 2.03 1.87 1.69 1.60 1.59 1.64 1.64 1.55 1.47 1.41 1.30 1.22 1.19 1.21 1.20 1.22 1.24 1.27 1.26 1.22 1.25 1.33 1.33
0.05 0.09 0.19 0.17 0.10 0.09 0.11 0.20 0.43 0.49 0.43 0.42 0.47 0.50 0.48 0.44 0.36 0.35 0.45 0.57 0.55 0.55 0.56 0.62 0.75 0.98 1.10 1.08 1.07 1.07 1.11 1.19 1.25 1.33 1.31 1.31 1.27 1.16 1.10 1.04 1.02 1.05 1.07 1.10 1.21 1.27 1.30 1.35 1.37
0.17 0.19 0.16 0.26 0.22 0.20 0.14 0.24 0.39 0.43 0.46 0.44 0.45 0.43 0.39 0.32 0.25 0.24 0.27 0.31 0.35 0.36 0.40 0.49 0.57 0.64 0.69 0.69 0.68 0.70 0.77 0.87 0.94 1.01 1.05 1.09 1.10 1.04 1.03 1.03 1.04 1.01 1.02 1.06 1.14 1.22 1.25 1.32 1.36
0.13 0.19 0.32 0.48 0.47 0.34 0.21 0.38 0.64 0.76 0.74 0.63 0.57 0.53 0.43 0.33 0.28 0.27 0.28 0.31 0.40 0.48 0.57 0.62 0.62 0.57 0.53 0.53 0.54 0.53 0.58 0.64 0.70 0.74 0.77 0.78 0.79 0.83 0.84 0.85 0.88 0.90 0.90 0.91 1.00 1.08 1.16 1.23 1.25
0.14 0.20 0.35 0.48 0.49 0.49 0.43 0.49 0.49 0.58 0.69 0.81 0.83 0.68 0.48 0.35 0.29 0.29 0.28 0.31 0.36 0.45 0.52 0.59 0.60 0.57 0.54 0.52 0.52 0.52 0.51 0.52 0.54 0.60 0.61 0.63 0.64 0.66 0.67 0.70 0.74 0.78 0.83 0.88 0.90 0.95 1.03 1.07 1.09
0.12 0.20 0.33 0.50 0.54 0.55 0.55 0.55 0.34 0.36 0.49 0.59 0.58 0.46 0.33 0.27 0.25 0.24 0.23 0.24 0.28 0.35 0.42 0.46 0.48 0.52 0.52 0.47 0.48 0.50 0.47 0.44 0.46 0.47 0.48 0.50 0.53 0.56 0.57 0.60 0.63 0.68 0.74 0.82 0.91 0.97 1.02 1.03 1.03